ATLAS 5 CENTAUR DEB, 43960

Orbit data source: Space-Track

ATLAS 5 CENTAUR DEB, 43960 is space debris in HEO originally from a launch on Wed, 17 Sep 2014 UTC launched from the Air Force Eastern Test Range (AFETR). Debris objects in space refer to the collection of defunct objects orbiting the Earth. Examples of debris include non-operational satellites, rocket bodies, and fragments generated from explosions, collisions, or faulty payload assembly.

Loading next visibility...
Identifier
43960, 2014-055P
Orbit
HEO
Last TLE update
7 hours ago
Origin
Flag of USUnited Launch Alliance/Lockheed Martin (US)
Manufacturer
Unknown
Mission
Spacecraft
Bus & Motor
Unknown
Mass
Unknown
Launch date (UTC)
2014-09-17 (11 years ago)
Launch vehicle
Unknown
Launch site
Air Force Eastern Test Range (AFETR)
Object type
Payload
Rocket body
Debris
Shape & HBR
Unknown
Radar Cross Section
Small (<0.1 m²)

Expand to show TLE details & history

TLE from 7 hours ago
0 ATLAS 5 CENTAUR DEB
1 43960U 14055P   25199.68301906 -.00000038  00000-0  00000+0 0  9997
2 43960  19.4773 171.2720 5125184 114.8491 305.9675  1.81606800 45575
Epoch: 2025-07-18T16:23Z
TLE epoch observation values (Epoch: 2025-07-18T16:23:32.846Z)
Latitude
-0°
Longitude
-11.40354°
Altitude
20,284.602 km
Speed
3.982 km/s
True Right ascension
11h 24m 51s
True Declination
0° 00' 00"
Sunlit
Object was in daylight at epoch
Visualization orbit readout
Latitude
-19.2105°
Longitude
-91.34331°
Altitude
34,995.348 km
Speed
2.286 km/s
Apparent Right ascension
05h 36m 45s
Apparent Declination
-24° 01' 12"
Sunlit
Object is in daylight
Visualization observer readout
Local Sidereal Time
12:18:06
Azimuth
257.026° W
Elevation
-22.763°
Doppler factor
1
Orbital elements
Apogee altitude
36,547.093 km
Perigee altitude
7,456.577 km
Semi-major axis
28,379.972 km
Eccentricity
0.51252
Inclination
19.4773°
RAAN
171.272°
Arg. of periapsis
114.8491°
True anomaly
245.20086°
Mean anomaly
305.9675°
Eccentric anomaly
276.8095°
Mean motion
0.45397 °/min
Orbital period
793.01 mins
BSTAR
0
Loading maneuver chart data...
Loading SW <> Apogee altitude chart data...
|